Weather History for Anaktuvuk Pass, AK

Change the Weather History Date:

Monday, August 19, 2013

  Actual Average Record
Temperature  
Mean Temperature 36 °F -  
Max Temperature 39 °F 49 °F 73 °F (2004)
Min Temperature 33 °F 35 °F 26 °F (1997)
Degree Days  
Heating Degree Days 29    
Moisture  
Dew Point 31 °F    
Average Humidity 79    
Maximum Humidity 87    
Minimum Humidity 75    
Precipitation  
Precipitation 0.01 in - - ()
Sea Level Pressure  
Sea Level Pressure 29.64 in    
Wind  
Wind Speed 12 mph (NE)    
Max Wind Speed 16 mph    
Max Gust Speed 20 mph    
Visibility 10 miles    
Events      
Averages and records for this station are not official NWS values.
T = Trace of Precipitation, MM = Missing Value Source: NWS Daily Summary

Daily Weather History Graph

Daily Weather History Graph

Search for Another Location

Airport:

Trip Planner

Search our weather history database for the weather conditions in past years. The results will help you decide how hot, cold, wet, or windy it might be!

Date:

Astronomy

Aug. 19, 2013 Rise Set
Actual Time 5:43 AM AKDT 10:33 PM AKDT
Civil Twilight 4:19 AM AKDT 11:55 PM AKDT
Nautical Twilight Sun does not rise Sun does not rise
Astronomical Twilight Sun does not rise Sun does not rise
Moon 9:21 PM AKDT (8/19) 3:59 AM AKDT (8/19)
Length of Visible Light 19h 36m
Length of Day
16h 50m
Waxing Gibbous, 98% of the Moon is Illuminated
Aug 19
Waxing Gibbous
Aug 20
Full
Aug 28
Last Quarter
Sep 5
New
Sep 12
First Quarter

Hourly Weather History & Observations

Time (AKDT) Temp. Windchill Dew Point Humidity Pressure Visibility Wind Dir Wind Speed Gust Speed Precip Events Conditions
12:16 AM 39.2 °F 32.0 °F 33.8 °F 81% 29.60 in 10.0 mi NE 11.5 mph - N/A   Overcast
12:36 AM 39.2 °F 32.5 °F 33.8 °F 81% 29.60 in 10.0 mi ENE 10.4 mph - N/A   Overcast
12:56 AM 39.2 °F 32.0 °F 33.8 °F 81% 29.60 in 10.0 mi ENE 11.5 mph - N/A   Overcast
1:16 AM 39.2 °F 32.5 °F 33.8 °F 81% 29.60 in 10.0 mi ENE 10.4 mph 16.1 mph N/A   Overcast
1:36 AM 39.2 °F 32.5 °F 33.8 °F 81% 29.60 in 10.0 mi ENE 10.4 mph - N/A   Overcast
1:56 AM 39.2 °F 32.0 °F 33.8 °F 81% 29.60 in 10.0 mi NE 11.5 mph 16.1 mph N/A   Overcast
2:16 AM 39.2 °F 33.0 °F 33.8 °F 81% 29.60 in 10.0 mi NE 9.2 mph 16.1 mph N/A   Overcast
2:36 AM 39.2 °F 32.0 °F 33.8 °F 81% 29.60 in 10.0 mi NE 11.5 mph - N/A   Overcast
2:56 AM 39.2 °F 32.5 °F 33.8 °F 81% 29.60 in 10.0 mi NE 10.4 mph - N/A   Overcast
3:16 AM 39.2 °F 32.0 °F 33.8 °F 81% 29.60 in 10.0 mi NE 11.5 mph - N/A   Overcast
3:36 AM 39.2 °F 31.6 °F 33.8 °F 81% 29.60 in 10.0 mi NE 12.7 mph 17.3 mph N/A   Overcast
3:56 AM 39.2 °F 32.0 °F 33.8 °F 81% 29.60 in 10.0 mi ENE 11.5 mph - N/A   Overcast
4:16 AM 39.2 °F 31.6 °F 33.8 °F 81% 29.60 in 10.0 mi ENE 12.7 mph - N/A   Overcast
4:36 AM 39.2 °F 31.2 °F 33.8 °F 81% 29.60 in 10.0 mi ENE 13.8 mph 18.4 mph N/A   Overcast
4:56 AM 37.4 °F 29.3 °F 33.8 °F 87% 29.60 in 10.0 mi NE 12.7 mph - N/A   Overcast
5:16 AM 37.4 °F 28.9 °F 33.8 °F 87% 29.60 in 10.0 mi NE 13.8 mph 18.4 mph N/A   Overcast
5:36 AM 37.4 °F 29.3 °F 33.8 °F 87% 29.60 in 10.0 mi NE 12.7 mph - N/A   Overcast
5:56 AM 37.4 °F 29.8 °F 32.0 °F 81% 29.60 in 10.0 mi ENE 11.5 mph 18.4 mph N/A   Overcast
6:16 AM 37.4 °F 29.8 °F 32.0 °F 81% 29.60 in 10.0 mi ENE 11.5 mph 17.3 mph N/A   Overcast
6:36 AM 37.4 °F 28.9 °F 32.0 °F 81% 29.60 in 10.0 mi ENE 13.8 mph 19.6 mph N/A   Overcast
6:56 AM 37.4 °F 28.9 °F 30.2 °F 75% 29.60 in 10.0 mi ENE 13.8 mph 18.4 mph N/A   Overcast
7:16 AM 37.4 °F 29.8 °F 30.2 °F 75% 29.61 in 10.0 mi NE 11.5 mph - N/A   Overcast
7:36 AM 37.4 °F 29.3 °F 30.2 °F 75% 29.61 in 10.0 mi NE 12.7 mph 17.3 mph N/A   Overcast
7:56 AM 37.4 °F 29.3 °F 30.2 °F 75% 29.61 in 10.0 mi NE 12.7 mph 17.3 mph N/A   Overcast
8:16 AM 37.4 °F 29.8 °F 30.2 °F 75% 29.61 in 10.0 mi NE 11.5 mph 16.1 mph N/A   Overcast
8:36 AM 37.4 °F 30.8 °F 30.2 °F 75% 29.61 in 10.0 mi NE 9.2 mph - N/A   Overcast
8:56 AM 35.6 °F 26.6 °F 30.2 °F 81% 29.61 in 10.0 mi NE 13.8 mph - N/A   Overcast
9:16 AM 35.6 °F 26.6 °F 30.2 °F 81% 29.62 in 10.0 mi NE 13.8 mph 18.4 mph N/A   Overcast
9:36 AM 35.6 °F 25.9 °F 30.2 °F 81% 29.62 in 10.0 mi NE 16.1 mph 19.6 mph N/A   Overcast
9:56 AM 35.6 °F 27.5 °F 30.2 °F 81% 29.63 in 10.0 mi NE 11.5 mph - N/A   Overcast
10:16 AM 35.6 °F 28.0 °F 30.2 °F 81% 29.63 in 10.0 mi NE 10.4 mph - N/A   Overcast
10:36 AM 35.6 °F 27.1 °F 30.2 °F 81% 29.63 in 10.0 mi ENE 12.7 mph 18.4 mph N/A   Overcast
10:56 AM 35.6 °F 26.6 °F 30.2 °F 81% 29.64 in 10.0 mi NE 13.8 mph 17.3 mph N/A   Overcast
11:16 AM 35.6 °F 27.5 °F 30.2 °F 81% 29.64 in 10.0 mi NE 11.5 mph 18.4 mph N/A   Overcast
11:36 AM 35.6 °F 28.0 °F 30.2 °F 81% 29.64 in 9.0 mi NE 10.4 mph 18.4 mph N/A   Overcast
11:56 AM 35.6 °F 27.1 °F 30.2 °F 81% 29.64 in 10.0 mi NE 12.7 mph - N/A   Overcast
12:16 PM 35.6 °F 26.6 °F 28.4 °F 75% 29.65 in 4.0 mi NE 13.8 mph - N/A   Overcast
12:36 PM 33.8 °F 25.3 °F 28.4 °F 81% 29.65 in 4.0 mi NE 11.5 mph 19.6 mph 0.01 in   Overcast
12:56 PM 35.6 °F 27.1 °F 30.2 °F 81% 29.66 in 7.0 mi NE 12.7 mph 17.3 mph 0.01 in   Overcast
1:16 PM 35.6 °F 27.5 °F 30.2 °F 81% 29.66 in 9.0 mi NE 11.5 mph - N/A   Overcast
1:36 PM 35.6 °F 27.5 °F 30.2 °F 81% 29.66 in 10.0 mi NE 11.5 mph 18.4 mph N/A   Overcast
1:56 PM 35.6 °F 27.5 °F 30.2 °F 81% 29.66 in 10.0 mi ENE 11.5 mph - N/A   Overcast
2:16 PM 35.6 °F 26.6 °F 30.2 °F 81% 29.66 in 10.0 mi ENE 13.8 mph 18.4 mph N/A   Overcast
2:36 PM 37.4 °F 28.9 °F 30.2 °F 75% 29.66 in 8.0 mi NE 13.8 mph - N/A   Overcast
2:56 PM 37.4 °F 29.3 °F 30.2 °F 75% 29.67 in 6.0 mi ENE 12.7 mph - N/A   Overcast
3:16 PM 37.4 °F 29.8 °F 30.2 °F 75% 29.67 in 8.0 mi NE 11.5 mph - N/A   Overcast
3:36 PM 37.4 °F 29.8 °F 32.0 °F 81% 29.67 in 10.0 mi NE 11.5 mph 16.1 mph N/A   Overcast
3:56 PM 37.4 °F 30.3 °F 32.0 °F 81% 29.68 in 9.0 mi NNE 10.4 mph - N/A   Overcast
4:16 PM 37.4 °F 29.8 °F 32.0 °F 81% 29.67 in 8.0 mi NE 11.5 mph 16.1 mph N/A   Overcast
4:36 PM 39.2 °F 31.6 °F 32.0 °F 75% 29.67 in 10.0 mi NE 12.7 mph 16.1 mph N/A   Overcast
4:56 PM 39.2 °F 32.5 °F 33.8 °F 81% 29.67 in 10.0 mi NE 10.4 mph 16.1 mph N/A   Overcast
5:16 PM 39.2 °F 31.6 °F 33.8 °F 81% 29.67 in 10.0 mi NE 12.7 mph - N/A   Overcast
5:36 PM 39.2 °F 31.6 °F 32.0 °F 75% 29.67 in 10.0 mi NE 12.7 mph - N/A   Overcast
5:56 PM 39.2 °F 32.0 °F 32.0 °F 75% 29.67 in 10.0 mi NE 11.5 mph - N/A   Overcast
6:16 PM 39.2 °F 32.0 °F 32.0 °F 75% 29.67 in 10.0 mi NE 11.5 mph - N/A   Overcast
6:36 PM 39.2 °F 31.6 °F 32.0 °F 75% 29.67 in 10.0 mi NE 12.7 mph - N/A   Overcast
6:56 PM 37.4 °F 28.9 °F 32.0 °F 81% 29.67 in 10.0 mi NE 13.8 mph 17.3 mph N/A   Overcast
7:16 PM 37.4 °F 29.3 °F 32.0 °F 81% 29.68 in 10.0 mi NE 12.7 mph 18.4 mph N/A   Overcast
7:36 PM 37.4 °F 28.9 °F 30.2 °F 75% 29.68 in 10.0 mi NE 13.8 mph 18.4 mph N/A   Overcast
7:56 PM 37.4 °F 29.3 °F 30.2 °F 75% 29.68 in 10.0 mi NE 12.7 mph 17.3 mph N/A   Overcast
8:16 PM 37.4 °F 28.9 °F 30.2 °F 75% 29.68 in 10.0 mi NE 13.8 mph 18.4 mph N/A   Overcast
8:36 PM 37.4 °F 30.3 °F 30.2 °F 75% 29.68 in 10.0 mi NE 10.4 mph 18.4 mph N/A   Overcast
8:56 PM 37.4 °F 28.9 °F 30.2 °F 75% 29.69 in 10.0 mi NE 13.8 mph 18.4 mph N/A   Mostly Cloudy
9:16 PM 37.4 °F 29.8 °F 30.2 °F 75% 29.68 in 10.0 mi NNE 11.5 mph 18.4 mph N/A   Overcast
9:36 PM 37.4 °F 29.3 °F 30.2 °F 75% 29.68 in 10.0 mi NE 12.7 mph 18.4 mph N/A   Overcast
9:56 PM 35.6 °F 26.6 °F 30.2 °F 81% 29.68 in 10.0 mi NE 13.8 mph - N/A   Overcast
10:16 PM 35.6 °F 26.2 °F 28.4 °F 75% 29.68 in 10.0 mi NE 15.0 mph 18.4 mph N/A   Overcast
10:36 PM 35.6 °F 27.5 °F 28.4 °F 75% 29.68 in 10.0 mi NE 11.5 mph - N/A   Overcast
10:56 PM 35.6 °F 26.6 °F 28.4 °F 75% 29.68 in 10.0 mi NE 13.8 mph 19.6 mph N/A   Overcast
11:16 PM 35.6 °F 26.6 °F 28.4 °F 75% 29.68 in 10.0 mi NE 13.8 mph - N/A   Overcast
11:36 PM 35.6 °F 27.5 °F 28.4 °F 75% 29.68 in 10.0 mi NE 11.5 mph 18.4 mph N/A   Overcast
11:56 PM 35.6 °F 26.2 °F 28.4 °F 75% 29.68 in 10.0 mi NE 15.0 mph 18.4 mph N/A   Overcast